measurement_time,temperature,humidity
1503248433,21.02,52.91
1503248493,21.14,53.02
1503248553,21.30,53.04
1503248613,21.31,52.31
1503248673,21.28,52.61
1503248733,21.38,52.83
1503248793,21.58,52.39
1503248853,21.77,51.93
1503248913,21.90,51.32
1503248973,21.95,50.80
1503249033,22.07,50.60
1503249093,21.94,50.13
1503249153,21.87,50.51
1503249213,21.98,50.82
1503249273,22.11,50.56
1503249333,22.16,50.14
1503249393,22.19,50.19
1503249453,22.24,50.21
1503249513,22.20,50.24
1503249573,22.08,50.36
1503249633,21.85,49.88
1503249693,21.72,50.28
1503249753,21.79,50.53
1503249813,21.76,50.01
1503249873,21.84,50.12
1503249933,21.80,49.49
1503249993,21.91,50.01
1503250053,22.04,49.86
1503250113,21.99,49.14
1503250173,21.88,49.32
1503250233,21.85,49.81
1503250293,21.97,49.91
1503250353,22.12,50.06
1503250413,22.19,49.55
1503250473,22.29,49.55
1503250533,22.48,49.71
1503250593,22.70,50.10
1503250653,22.88,49.41
1503250713,22.72,47.97
1503250773,22.36,48.34
1503250833,22.25,48.78
1503250893,22.31,49.51
1503250953,22.55,49.43
1503251013,22.77,48.42
1503251073,22.81,47.80
1503251133,22.76,47.74
1503251193,22.85,47.97
1503251253,23.05,48.29
1503251313,23.14,47.67
1503251373,23.24,47.95
1503251433,23.41,47.60
1503251493,23.47,47.23
1503251553,23.54,47.65
1503251613,23.68,47.43
1503251673,23.86,47.87
1503251733,24.09,47.62
1503251793,24.20,46.36
1503251853,24.27,45.78
1503251913,24.15,45.04
1503251973,23.98,45.05
1503252033,23.95,45.17
1503252093,23.87,45.22
1503252153,23.85,45.19
1503252213,23.82,44.53
1503252273,23.75,44.52
1503252333,23.65,44.63
1503252393,23.58,44.99
1503252453,23.69,45.28
1503252513,23.85,45.12
1503252573,24.05,45.07
1503252633,24.19,44.88
1503252693,24.26,44.53
1503252753,24.35,44.30
1503252813,24.53,44.43
1503252873,24.65,43.59
1503252933,24.74,43.59
1503252993,24.93,43.54
1503253053,24.99,43.25
1503253113,25.08,43.21
1503253173,25.33,43.05
1503253233,25.56,42.80
1503253293,25.53,42.02
1503253353,25.44,41.30
1503253413,25.34,41.35
1503253473,25.35,41.82
1503253533,25.49,41.50
1503253593,25.51,41.21
1503253653,25.60,41.64
1503253713,25.69,41.07
1503253773,25.65,41.48
1503253833,25.83,41.96
1503253893,26.09,41.96
1503253953,26.33,41.05
1503254013,26.20,39.95
1503254073,26.15,40.39
1503254133,26.16,39.80
1503254193,26.09,39.98
1503254253,26.02,39.93
1503254313,25.86,40.29
1503254373,26.01,40.89
1503254433,26.40,40.92
1503254493,26.48,39.68
1503254553,26.17,39.64
1503254613,26.15,39.95
1503254673,26.05,40.20
1503254733,26.17,40.55
1503254793,26.27,40.12
1503254853,26.37,40.21
1503254913,26.56,40.63
1503254973,26.76,40.45
1503255033,26.98,40.06
1503255093,27.20,39.67
1503255153,27.41,39.64
1503255213,27.50,38.40
1503255273,27.34,38.03
1503255333,27.32,38.71
1503255393,27.55,38.75
1503255453,27.87,38.69
1503255513,28.09,38.45
1503255573,28.18,37.30
1503255633,28.14,37.05
1503255693,28.17,36.80
1503255753,28.21,36.29
1503255813,28.32,36.64
1503255873,28.42,35.97
1503255933,28.41,35.64
1503255993,28.37,35.61
1503256053,28.14,35.41
1503256113,28.09,35.97
1503256173,28.12,36.19
1503256233,28.11,36.16
1503256293,27.69,36.32
1503256353,27.26,37.08
1503256413,27.05,37.54
1503256473,27.04,37.79
1503256533,27.15,37.97
1503256593,27.29,37.64
1503256653,27.16,37.04
1503256713,27.16,37.61
1503256773,27.35,37.36
1503256833,27.54,37.35
1503256893,27.83,36.98
1503256953,28.05,36.67
1503257013,28.40,36.17
1503257073,28.67,35.91
1503257133,28.99,35.20
1503257193,29.17,34.86
1503257253,29.29,34.66
1503257313,29.26,33.94
1503257373,29.00,33.83
1503257433,29.01,34.65
1503257493,29.28,34.77
1503257553,29.68,34.73
1503257613,30.00,34.07
1503257673,30.17,32.83
1503257733,30.10,33.20
1503257793,30.22,33.28
1503257853,30.45,33.25
1503257913,30.37,32.78
1503257973,30.10,32.67
1503258033,29.79,33.42
1503258093,29.59,33.49
1503258153,29.26,33.68
1503258213,29.07,34.03
1503258273,29.03,34.81
1503258333,28.91,34.14
1503258393,28.78,34.60
1503258453,28.60,35.38
1503258513,28.50,35.93
1503258573,28.58,35.57
1503258633,28.65,35.63
1503258693,28.71,34.98
1503258753,28.69,34.45
1503258813,28.67,34.72
1503258873,28.80,34.65
1503258933,28.85,34.49
1503258993,28.84,34.17
1503259053,28.77,33.89
1503259113,28.73,34.33
1503259173,28.92,34.87
1503259233,29.20,34.59
1503259293,29.46,34.40
1503259353,29.66,33.68
1503259413,29.63,33.20
1503259473,29.41,32.52
1503259533,29.17,33.18
1503259593,29.08,33.52
1503259653,28.86,33.77
1503259713,28.78,34.76
1503259773,28.82,34.80
1503259833,28.85,35.05
1503259893,28.87,34.42
1503259953,28.84,34.26
1503260013,28.80,34.88
1503260073,28.62,35.35
1503260133,28.46,35.49
1503260193,28.44,35.42
1503260253,28.60,35.38
1503260313,28.61,35.35
1503260373,28.64,35.59
1503260433,28.79,35.63
1503260493,28.77,35.70
1503260553,28.74,35.88
1503260613,28.50,35.71
1503260673,28.45,36.11
1503260733,28.43,36.19
1503260793,28.37,35.91
1503260853,28.26,36.65
1503260913,28.35,36.81
1503260973,28.52,36.48
1503261033,28.59,36.05
1503261093,28.74,35.43
1503261153,28.85,35.58
1503261213,29.06,35.62
1503261273,29.08,35.07
1503261333,29.23,35.08
1503261393,29.46,34.82
1503261453,29.46,34.21
1503261513,29.47,34.02
1503261573,29.26,34.37
1503261633,29.14,34.71
1503261693,29.29,34.71
1503261753,29.27,33.81
1503261813,29.37,34.30
1503261873,29.58,34.38
1503261933,29.63,33.58
1503261993,29.79,33.91
1503262053,29.93,33.17
1503262113,29.98,33.27
1503262173,30.08,33.39
1503262233,30.22,33.58
1503262293,30.37,33.11
1503262353,30.32,32.46
1503262413,30.20,33.14
1503262473,30.05,32.46
1503262533,30.07,32.81
1503262593,30.04,32.79
1503262653,30.05,32.77
1503262713,30.15,32.90
1503262773,30.34,32.75
1503262833,30.32,32.43
1503262893,30.36,32.66
1503262953,30.64,33.19
1503263013,30.85,32.04
1503263073,30.83,31.24
1503263133,30.72,31.72
1503263193,30.90,31.48
1503263253,31.27,31.42
1503263313,31.40,30.41
1503263373,31.44,30.62
1503263433,31.69,30.22
1503263493,31.81,30.33
1503263553,31.99,29.79
1503263613,31.65,30.07
1503263673,31.34,30.56
1503263733,31.28,30.78
1503263793,31.12,30.51
1503263853,31.01,30.38
1503263913,30.91,30.54
1503263973,30.78,30.94
1503264033,30.68,31.26
1503264093,30.56,31.36
1503264153,30.50,31.73
1503264213,30.59,32.23
1503264273,30.62,31.88
1503264333,30.65,32.26
1503264393,30.90,32.07
1503264453,30.84,31.53
1503264513,30.34,31.72
1503264573,30.09,31.75
1503264633,29.98,32.05
1503264693,29.96,32.56
1503264753,29.83,32.64
1503264813,29.71,32.96
1503264873,29.51,33.51
1503264933,28.99,33.52
1503264993,28.69,34.23
1503265053,28.65,34.68
1503265113,28.72,35.13
1503265173,28.84,34.99
1503265233,28.98,34.60
1503265293,29.16,34.81
1503265353,29.48,34.45
1503265413,29.67,33.95
1503265473,29.87,33.86
1503265533,29.91,33.27
1503265593,29.80,33.57
1503265653,29.74,33.43
1503265713,29.37,33.55
1503265773,29.06,34.25
1503265833,28.64,34.61
1503265893,28.25,35.43
1503265953,27.98,36.06
1503266013,27.70,36.77
1503266073,27.50,36.89
1503266133,27.45,37.46
1503266193,27.57,37.68
1503266253,27.79,37.58
1503266313,27.95,37.49
1503266373,27.97,37.19
1503266433,27.84,37.45
1503266493,27.74,37.52
1503266553,27.68,37.82
1503266613,27.57,38.23
1503266673,27.54,38.22
1503266733,27.44,38.10
1503266793,27.26,38.52
1503266853,27.01,38.56
1503266913,26.86,39.12
1503266973,26.76,39.19
1503267033,26.66,39.60
1503267093,26.76,39.57
1503267153,26.73,39.33
1503267213,26.62,39.39
1503267273,26.60,39.44
1503267333,26.49,39.64
1503267393,26.37,39.78
1503267453,26.40,39.71
1503267513,26.42,39.62
1503267573,26.47,39.61
1503267633,26.42,39.73
1503267693,26.34,39.80
1503267753,26.31,40.07
1503267813,26.09,40.28
1503267873,25.92,40.76
1503267933,25.71,41.04
1503267993,25.60,41.46
1503268053,25.42,41.76
1503268113,25.39,42.27
1503268173,25.38,42.25
1503268233,25.34,42.34
1503268293,25.28,42.40
1503268353,25.25,42.73
1503268413,25.32,42.60
1503268473,25.33,42.72
1503268533,25.36,42.60
1503268593,25.44,42.61
1503268653,25.54,42.43
1503268713,25.56,42.44
1503268773,25.62,42.49
1503268833,25.73,42.29
1503268893,25.87,41.95
1503268953,25.92,42.11
1503269013,25.97,42.04
1503269073,26.02,41.53
1503269133,25.95,40.61
1503269193,25.75,40.96
1503269253,25.66,41.34
1503269313,25.63,41.43
1503269373,25.69,41.73
1503269433,25.69,40.89
1503269493,25.68,40.44
1503269553,25.64,40.14
1503269613,25.60,40.18
1503269673,25.65,40.57
1503269733,25.78,40.61
1503269793,25.93,40.63
1503269853,26.11,40.40
1503269913,26.42,40.35
1503269973,26.81,39.71
1503270033,27.05,39.28
1503270093,27.24,39.09
1503270153,27.43,38.86
1503270213,27.54,38.38
1503270273,27.44,38.37
1503270333,27.35,38.67
1503270393,27.26,38.76
1503270453,27.20,38.99
1503270513,27.19,39.23
1503270573,27.15,39.40
1503270633,27.16,39.80
1503270693,27.24,39.64
1503270753,27.31,39.60
1503270813,27.34,39.61
1503270873,27.28,39.58
1503270933,27.20,39.22
1503270993,27.17,39.68
1503271053,27.20,39.73
1503271113,27.19,39.65
1503271173,27.35,39.80
1503271233,27.50,39.77
1503271293,27.53,39.50
1503271353,27.30,39.12
1503271413,27.07,39.37
1503271473,26.94,40.34
1503271533,26.89,40.42
1503271593,26.75,40.70
1503271653,26.69,41.05
1503271713,26.71,40.97
1503271773,26.80,41.18
1503271833,27.02,41.08
1503271893,27.15,40.72
1503271953,27.22,39.67
1503272013,27.14,39.70
1503272073,27.17,40.01
1503272133,27.25,39.91
1503272193,27.36,39.93
1503272253,27.55,39.79
1503272313,27.57,39.51
1503272373,27.58,39.38
1503272433,27.52,39.30
1503272493,27.47,39.41
1503272553,27.45,39.05
1503272613,27.30,39.04
1503272673,27.16,39.60
1503272733,27.11,39.93
1503272793,27.15,39.88
1503272853,27.15,39.71
1503272913,26.99,40.13
1503272973,26.81,40.19
1503273033,26.64,41.08
1503273093,26.45,40.95
1503273153,26.40,41.36
1503273213,26.46,41.49
1503273273,26.42,41.34
1503273333,26.45,41.64
1503273393,26.42,41.18
1503273453,26.31,41.98
1503273513,26.32,41.92
1503273573,26.34,42.21
1503273633,26.28,41.92
1503273693,26.21,41.60
1503273753,26.16,41.81
1503273813,26.11,41.99
1503273873,26.03,41.81
1503273933,25.97,41.79
1503273993,25.93,42.08
1503274053,25.92,42.44
1503274113,25.96,42.30
1503274173,25.94,42.37
1503274233,25.97,42.29
1503274293,25.92,42.29
1503274353,25.89,42.47
1503274413,25.77,42.35
1503274473,25.62,42.63
1503274533,25.56,43.28
1503274593,25.57,43.12
1503274653,25.57,43.16
1503274713,25.53,43.15
1503274773,25.46,43.50
1503274833,25.57,43.91
1503274893,25.65,43.59
1503274953,25.68,43.43
1503275013,25.76,43.24
1503275073,25.76,43.05
1503275133,25.72,43.16
1503275193,25.71,43.21
1503275253,25.64,42.92
1503275313,25.60,43.14
1503275373,25.54,42.72
1503275433,25.39,42.85
1503275493,25.30,43.41
1503275553,25.21,43.59
1503275613,25.15,43.88
1503275673,25.18,43.82
1503275733,25.21,43.77
1503275793,25.18,43.99
1503275853,25.14,43.18
1503275913,25.16,43.55
1503275973,25.25,43.40
1503276033,25.37,43.61
1503276093,25.49,43.16
1503276153,25.54,43.31
1503276213,25.57,43.20
1503276273,25.53,42.51
1503276333,25.49,42.38
1503276393,25.46,42.83
1503276453,25.37,42.32
1503276513,25.36,42.73
1503276573,25.44,43.05
1503276633,25.49,42.89
1503276693,25.49,42.51
1503276753,25.52,42.60
1503276813,25.48,41.33
1503276873,25.45,41.07
1503276933,25.43,40.96
1503276993,25.45,40.64
1503277053,25.45,39.93
1503277113,25.40,40.08
1503277173,25.40,40.18
1503277233,25.36,40.17
1503277293,25.35,40.36
1503277353,25.34,40.51
1503277413,25.38,40.29
1503277473,25.38,40.15
1503277533,25.40,40.10
1503277593,25.39,40.17
1503277653,25.37,39.76
1503277713,25.33,39.97
1503277773,25.38,40.14
1503277833,25.42,40.51
1503277893,25.43,40.47
1503277953,25.46,40.53
1503278013,25.49,40.18
1503278073,25.53,40.14
1503278133,25.53,39.65
1503278193,25.49,39.47
1503278253,25.47,39.67
1503278313,25.49,39.83
1503278373,25.57,39.89
1503278433,25.57,39.51
1503278493,25.54,39.70
1503278553,25.49,39.43
1503278613,25.48,39.15
1503278673,25.43,39.25
1503278733,25.44,39.31
1503278793,25.42,39.32
1503278853,25.56,39.35
1503278913,25.71,39.36
1503278973,25.81,38.96
1503279033,25.73,39.09
1503279093,25.76,39.08
1503279153,25.78,38.80
1503279213,25.76,38.83
1503279273,25.75,38.98
1503279333,25.79,39.21
1503279393,25.82,39.69
1503279453,25.76,39.86
1503279513,25.78,39.89
1503279573,25.84,40.12
1503279633,25.79,40.02
1503279693,25.80,39.94
1503279753,25.80,40.38
1503279813,25.87,41.05
1503279873,25.86,41.15
1503279933,25.79,41.31
1503279993,25.76,41.92
1503280053,25.82,42.08
1503280113,25.72,42.22
1503280173,25.74,42.66
1503280233,25.71,42.75
1503280293,25.78,42.98
1503280353,25.88,42.73
1503280413,25.94,42.60
1503280473,25.84,42.61
1503280533,25.88,42.80
1503280593,25.94,43.05
1503280653,26.15,43.16
1503280713,26.30,43.26
1503280773,26.45,42.96
1503280833,26.46,42.78
1503280893,26.48,42.68
1503280953,26.48,42.75
1503281013,26.53,42.79
1503281073,26.58,42.78
1503281133,26.47,42.69
1503281193,26.39,42.98
1503281253,26.40,43.23
1503281313,26.48,43.40
1503281373,26.37,43.28
1503281433,26.30,43.54
1503281493,26.25,43.71
1503281553,26.11,43.79
1503281613,25.98,44.13
1503281673,25.88,44.58
1503281733,25.76,44.85
1503281793,25.54,45.14
1503281853,25.37,45.85
1503281913,25.32,46.10
1503281973,25.36,46.27
1503282033,25.40,46.43
1503282093,25.46,46.55
1503282153,25.48,46.53
1503282213,25.37,46.79
1503282273,25.28,46.94
1503282333,25.27,47.08
1503282393,25.21,47.08
1503282453,25.20,47.22
1503282513,25.15,46.78
1503282573,25.16,46.80
1503282633,25.19,46.52
1503282693,25.20,45.99
1503282753,25.20,45.67
1503282813,25.09,45.78
1503282873,25.02,45.89
1503282933,24.95,45.88
1503282993,24.91,45.91
1503283053,24.89,45.91
1503283113,24.84,45.88
1503283173,24.70,45.85
1503283233,24.59,46.07
1503283293,24.44,46.04
1503283353,24.32,46.28
1503283413,24.21,46.60
1503283473,24.09,46.75
1503283533,23.94,46.86
1503283593,23.73,47.07
1503283653,23.55,47.43
1503283713,23.38,47.73
1503283773,23.21,47.93
1503283833,23.10,48.24
1503283893,22.95,48.45
1503283953,22.82,48.78
1503284013,22.69,49.13
1503284073,22.56,49.48
1503284133,22.43,49.72
1503284193,22.29,49.97
1503284253,22.19,50.25
1503284313,22.09,50.70
1503284373,22.01,50.88
1503284433,21.92,51.18
1503284493,21.88,51.39
1503284553,21.82,51.64
1503284613,21.77,51.77
1503284673,21.72,52.13
1503284733,21.67,52.38
1503284793,21.65,52.56
1503284853,21.61,52.77
1503284913,21.53,52.90
1503284973,21.43,53.15
1503285033,21.34,53.56
1503285093,21.28,53.86
1503285153,21.21,54.25
1503285213,21.16,54.47
1503285273,21.10,54.75
1503285333,21.06,54.84
1503285393,21.00,55.13
1503285453,20.94,55.27
1503285513,20.91,55.45
1503285573,20.90,55.60
1503285633,20.87,55.70
1503285693,20.81,55.88
1503285753,20.78,56.08
1503285813,20.77,56.24
1503285873,20.72,56.40
1503285933,20.69,56.60
1503285993,20.64,56.71
1503286053,20.61,56.77
1503286113,20.54,57.01
1503286173,20.54,57.12
1503286233,20.49,57.25
1503286293,20.45,57.41
1503286353,20.44,57.54
1503286413,20.40,57.70
1503286473,20.35,57.88
1503286533,20.32,57.92
1503286593,20.28,58.01
1503286653,20.26,58.16
1503286713,20.22,58.30
1503286773,20.22,58.38
1503286833,20.16,58.51
1503286893,20.14,58.59
1503286953,20.14,58.62
1503287013,20.07,58.72
1503287073,20.06,58.77
1503287133,20.10,58.89
1503287193,20.09,58.84
1503287253,20.10,58.86
1503287313,20.10,58.88
1503287373,20.10,58.95
1503287433,20.06,58.94
1503287493,20.03,59.03
1503287553,19.99,59.20
1503287613,19.96,59.31
1503287673,19.94,59.39
1503287733,19.87,59.46
1503287793,19.83,59.53
1503287853,19.84,59.65
1503287913,19.83,59.82
1503287973,19.82,59.87
1503288033,19.79,59.94
1503288093,19.75,60.16
1503288153,19.72,60.20
1503288213,19.68,60.32
1503288273,19.66,60.42
1503288333,19.65,60.51
1503288393,19.65,60.58
1503288453,19.62,60.64
1503288513,19.58,60.71
1503288573,19.58,60.81
1503288633,19.60,60.96
1503288693,19.60,61.00
1503288753,19.59,61.01
1503288813,19.59,61.01
1503288873,19.54,61.03
1503288933,19.52,61.15
1503288993,19.52,61.22
1503289053,19.52,61.29
1503289113,19.50,61.34
1503289173,19.46,61.39
1503289233,19.43,61.48
1503289293,19.45,61.52
1503289353,19.41,61.62
1503289413,19.41,61.71
1503289473,19.41,61.83
1503289533,19.39,61.87
1503289593,19.40,61.94
1503289653,19.41,62.00
1503289713,19.43,61.97
1503289773,19.42,62.02
1503289833,19.41,62.07
1503289893,19.35,62.15
1503289953,19.33,62.27
1503290013,19.35,62.39
1503290073,19.33,62.45
1503290133,19.33,62.56
1503290193,19.33,62.52
1503290253,19.30,62.56
1503290313,19.31,62.65
1503290373,19.31,62.65
1503290433,19.28,62.72
1503290493,19.29,62.85
1503290553,19.27,62.87
1503290613,19.26,62.90
1503290673,19.28,62.94
1503290733,19.27,63.00
1503290793,19.23,62.99
1503290853,19.22,63.07
1503290913,19.20,63.11
1503290973,19.18,63.22
1503291033,19.18,63.27
1503291093,19.16,63.29
1503291153,19.17,63.36
1503291213,19.15,63.49
1503291273,19.12,63.60
1503291333,19.07,63.65
1503291393,19.07,63.73
1503291453,19.02,63.79
1503291513,19.01,63.92
1503291573,19.02,64.01
1503291633,19.01,64.06
1503291693,19.01,64.09
1503291753,18.99,64.18
1503291813,18.97,64.19
1503291873,18.95,64.26
1503291933,18.92,64.45
1503291993,18.87,64.43
1503292053,18.87,64.50
1503292113,18.83,64.61
1503292173,18.83,64.72
1503292233,18.79,64.87
1503292293,18.81,64.87
1503292353,18.78,64.90
1503292413,18.76,64.87
1503292473,18.73,65.01
1503292533,18.71,65.02
1503292593,18.70,65.07
1503292653,18.69,65.16
1503292713,18.79,65.29
1503292773,18.91,65.16
1503292833,18.96,65.00
1503292893,18.93,64.78
1503292953,18.91,64.75
1503293013,18.83,64.71
1503293073,18.77,64.75
1503293133,18.71,64.82
1503293193,18.64,65.04
1503293253,18.57,65.10
1503293313,18.55,65.19
1503293373,18.51,65.39
1503293433,18.50,65.51
1503293493,18.49,65.58
1503293553,18.50,65.59
1503293613,18.49,65.59
1503293673,18.46,65.64
1503293733,18.42,65.70
1503293793,18.42,65.72
1503293853,18.35,65.81
1503293913,18.34,65.95
1503293973,18.34,66.00
1503294033,18.33,66.10
1503294093,18.33,66.16
1503294153,18.29,66.16
1503294213,18.29,66.21
1503294273,18.24,66.32
1503294333,18.26,66.41
1503294393,18.23,66.50
1503294453,18.22,66.63
1503294513,18.21,66.60
1503294573,18.22,66.67
1503294633,18.22,66.67
1503294693,18.19,66.71
1503294753,18.19,66.77
1503294813,18.20,66.81
1503294873,18.21,66.82
1503294933,18.22,66.79
1503294993,18.20,66.76
1503295053,18.20,66.73
1503295113,18.19,66.80
1503295173,18.20,66.82
1503295233,18.15,66.81
1503295293,18.12,66.82
1503295353,18.10,66.96
1503295413,18.09,66.94
1503295473,18.12,66.97
1503295533,18.10,66.98
1503295593,18.06,66.97
1503295653,18.00,67.09
1503295713,17.96,67.19
1503295773,17.96,67.31
1503295833,17.96,67.36
1503295893,17.93,67.45
1503295953,17.96,67.52
1503296013,17.96,67.59
1503296073,17.95,67.59
1503296133,17.95,67.57
1503296193,17.92,67.60
1503296253,17.90,67.71
1503296313,17.90,67.77
1503296373,17.90,67.80
1503296433,17.92,67.86
1503296493,17.92,67.86
1503296553,17.92,67.87
1503296613,17.91,67.90
1503296673,17.89,67.94
1503296733,17.82,67.99
1503296793,17.88,68.12
1503296853,17.89,68.12
1503296913,17.89,68.08
1503296973,17.87,68.05
1503297033,17.84,68.11
1503297093,17.80,68.21
1503297153,17.84,68.20
1503297213,17.84,68.18
1503297273,17.80,68.26
1503297333,17.84,68.30
1503297393,17.83,68.31
1503297453,17.81,68.33
1503297513,17.81,68.38
1503297573,17.81,68.32
1503297633,17.81,68.36
1503297693,17.79,68.41
1503297753,17.79,68.47
1503297813,17.80,68.48
1503297873,17.80,68.45
1503297933,17.76,68.50
1503297993,17.74,68.51
1503298053,17.72,68.57
1503298113,17.67,68.69
1503298173,17.68,68.76
1503298233,17.68,68.85
1503298293,17.70,68.84
1503298353,17.69,68.89
1503298413,17.69,68.86
1503298473,17.70,68.89
1503298533,17.68,68.90
1503298593,17.66,68.92
1503298653,17.64,68.97
1503298713,17.62,69.05
1503298773,17.58,69.11
1503298833,17.55,69.25
1503298893,17.55,69.26
1503298953,17.54,69.34
1503299013,17.50,69.36
1503299073,17.49,69.38
1503299133,17.45,69.44
1503299193,17.43,69.61
1503299253,17.39,69.73
1503299313,17.40,69.75
1503299373,17.38,69.80
1503299433,17.34,69.93
1503299493,17.34,69.95
1503299553,17.35,69.99
1503299613,17.34,70.08
1503299673,17.37,70.19
1503299733,17.46,70.26
1503299793,17.51,70.29
1503299853,17.55,70.16
1503299913,17.59,70.01
1503299973,17.58,69.85
1503300033,17.60,70.05
1503300093,17.65,70.02
1503300153,17.70,69.98
1503300213,17.74,69.80
1503300273,17.73,69.68
1503300333,17.72,69.71
1503300393,17.80,69.84
1503300453,17.82,69.70
1503300513,17.80,69.63
1503300573,17.72,69.54
1503300633,17.64,69.67
1503300693,17.55,69.83
1503300753,17.52,70.14
1503300813,17.52,70.29
1503300873,17.53,70.53
1503300933,17.51,70.51
1503300993,17.48,70.62
1503301053,17.48,70.65
1503301113,17.49,70.78
1503301173,17.51,70.83
1503301233,17.53,70.91
1503301293,17.54,70.85
1503301353,17.52,70.81
1503301413,17.48,70.85
1503301473,17.49,70.94
1503301533,17.46,71.04
1503301593,17.47,71.11
1503301653,17.43,71.14
1503301713,17.40,71.21
1503301773,17.39,71.28
1503301833,17.37,71.30
1503301893,17.34,71.40
1503301953,17.34,71.46
1503302013,17.31,71.52
1503302073,17.31,71.68
1503302133,17.35,71.89
1503302193,17.38,71.83
1503302253,17.36,71.75
1503302313,17.31,71.69
1503302373,17.25,71.72
1503302433,17.20,71.79
1503302493,17.11,71.88
1503302553,17.08,72.08
1503302613,17.04,72.21
1503302673,17.05,72.32
1503302733,17.05,72.49
1503302793,17.07,72.52
1503302853,17.08,72.65
1503302913,17.07,72.66
1503302973,17.09,72.68
1503303033,17.09,72.66
1503303093,17.06,72.62
1503303153,17.01,72.69
1503303213,17.01,72.75
1503303273,16.96,72.79
1503303333,16.93,72.89
1503303393,16.95,72.96
1503303453,16.93,72.99
1503303513,16.92,73.01
1503303573,16.91,73.06
1503303633,16.87,73.10
1503303693,16.85,73.20
1503303753,16.84,73.33
1503303813,16.85,73.36
1503303873,16.84,73.41
1503303933,16.86,73.37
1503303993,16.81,73.39
1503304053,16.79,73.42
1503304113,16.76,73.44
1503304173,16.74,73.54
1503304233,16.71,73.56
1503304293,16.69,73.64
1503304353,16.72,73.78
1503304413,16.69,73.80
1503304473,16.70,73.87
1503304533,16.71,73.92
1503304593,16.71,74.02
1503304653,16.67,74.01
1503304713,16.70,74.08
1503304773,16.73,74.27
1503304833,16.79,74.27
1503304893,16.85,74.34
1503304953,16.89,74.19
1503305013,16.92,74.07
1503305073,16.93,74.05
1503305133,16.99,73.96
1503305193,17.02,73.97
1503305253,17.02,73.90
1503305313,17.04,73.80
1503305373,17.05,73.70
1503305433,17.04,73.66
1503305493,17.04,73.66
1503305553,17.03,73.66
1503305613,17.04,73.77
1503305673,17.11,73.74
1503305733,17.08,73.64
1503305793,17.07,73.57
1503305853,17.03,73.53
1503305913,17.01,73.57
1503305973,16.99,73.59
1503306033,16.92,73.59
1503306093,16.89,73.68
1503306153,16.85,73.74
1503306213,16.82,73.87
1503306273,16.80,73.92
1503306333,16.81,74.02
1503306393,16.84,74.12
1503306453,16.80,74.14
1503306513,16.82,74.27
1503306573,16.84,74.32
1503306633,16.88,74.31
1503306693,16.91,74.37
1503306753,16.93,74.31
1503306813,16.98,74.31
1503306873,16.99,74.24
1503306933,16.99,74.17
1503306993,16.99,74.11
1503307053,17.00,74.13
1503307113,17.00,74.11
1503307173,16.99,74.02
1503307233,16.98,74.04
1503307293,16.94,74.14
1503307353,16.94,74.13
1503307413,16.90,74.16
1503307473,16.89,74.15
1503307533,16.86,74.12
1503307593,16.80,74.19
1503307653,16.74,74.26
1503307713,16.70,74.24
1503307773,16.61,74.31
1503307833,16.50,74.43
1503307893,16.41,74.54
1503307953,16.33,74.75
1503308013,16.27,74.91
1503308073,16.22,75.13
1503308133,16.25,75.42
1503308193,16.22,75.55
1503308253,16.28,75.65
1503308313,16.27,75.66
1503308373,16.31,75.82
1503308433,16.31,75.75
1503308493,16.29,75.71
1503308553,16.21,75.75
1503308613,16.19,75.87
1503308673,16.16,75.94
1503308733,16.14,76.01
1503308793,16.10,76.10
1503308853,16.04,76.15
1503308913,16.00,76.27
1503308973,15.95,76.39
1503309033,15.90,76.49
1503309093,15.88,76.57
1503309153,15.86,76.69
1503309213,15.82,76.82
1503309273,15.82,76.97
1503309333,15.82,77.07
1503309393,15.82,77.18
1503309453,15.78,77.19
1503309513,15.82,77.44
1503309573,15.90,77.59
1503309633,16.00,77.75
1503309693,16.10,77.73
1503309753,16.20,77.72
1503309813,16.30,77.68
1503309873,16.37,77.44
1503309933,16.44,77.25
1503309993,16.48,76.97
1503310053,16.43,76.76
1503310113,16.42,76.65
1503310173,16.34,76.52
1503310233,16.27,76.50
1503310293,16.17,76.49
1503310353,16.06,76.62
1503310413,15.99,76.78
1503310473,15.92,76.93
1503310533,15.87,77.08
1503310593,15.85,77.27
1503310653,15.82,77.45
1503310713,15.75,77.59
1503310773,15.71,77.71
1503310833,15.66,77.78